THORAD AGENA D DEB, 4650

Orbit data source: Space-Track

THORAD AGENA D DEB, 4650 is space debris in SSO originally from a launch on Wed, 08 Apr 1970 UTC launched from the Air Force Western Test Range (AFWTR). Debris objects in space refer to the collection of defunct objects orbiting the Earth. Examples of debris include non-operational satellites, rocket bodies, and fragments generated from explosions, collisions, or faulty payload assembly.

Loading next visibility...
Identifier
4650, 1970-025AJ
Orbit
SSO
Country
Flag of USUS
Related business
Manufacturer
Unknown
Mission
Spacecraft
Bus & Motor
Unknown
Mass
Unknown
Launch date (UTC)
1970-04-08 (55 years ago)
Launch vehicle
Unknown
Launch site
Air Force Western Test Range (AFWTR)
Object type
Payload
Rocket body
Debris
Shape & HBR
Unknown
Radar Cross Section
Small (<0.1 m²)

Expand to show TLE details & history
Last TLE update: 19 hours ago

TLE from 19 hours ago
0 THORAD AGENA D DEB
1 04650U 70025AJ  25260.50285764  .00000970  00000-0  54095-3 0  9993
2 04650  99.8300 357.5309 0115417 119.9441 241.3246 14.10308690819244
Epoch: 2025-09-17T12:04Z
TLE epoch observation values (Epoch: 2025-09-17T12:04:06.9Z)
Latitude
0.00003°
Longitude
179.82427°
Altitude
902.001 km
Speed
7.38 km/s
True Right ascension
23h 50m 07s
True Declination
0° 00' 00"
Sunlit
Object was in full shadow at epoch
Visualization orbit readout
Latitude
Unknown
Longitude
Unknown
Altitude
Unknown
Speed
Unknown
Apparent Right ascension
Unknown
Apparent Declination
Unknown
Sunlit
N/A
Visualization observer readout
Local Sidereal Time
00:11:38
Azimuth
Unknown
Elevation
Unknown
Doppler factor
Unknown
Orbital elements
Apogee altitude
939.032 km
Perigee altitude
772.054 km
Semi-major axis
7,233.68 km
Eccentricity
0.01154
Inclination
99.83°
RAAN
357.5309°
Arg. of periapsis
119.9441°
True anomaly
240.17229°
Mean anomaly
241.3246°
Eccentric anomaly
240.74764°
Mean motion
3.5278 °/min
Orbital period
102.05 mins
BSTAR
0.00054095
Loading maneuver chart data...
Computing Atmospheric mass density...

Documentation

Showing up to 5 results
|